Flag for U.S.A. Weather past 2 weeks in West Covina, California, U.S.A.

Now
71 °F

Overcast.


Feels Like: 71 °F
Forecast: 64 / 93 °F
Wind: No wind

Location: Fullerton Municipal Airport

Current Time: Jul 29, 2015 at 3:19:21 AM

Latest Report: Jul 29, 2015 at 2:53 AM


Visibility: 9 mi

Pressure: 29.88 "Hg

Humidity: 81%

Dew point: 65 °F

Location of West CovinaLocation

Historic Weather in West Covina — Graph

°F

West Covina temperature yesterday

Maximum temperature yesterday: 83 °F (at 11:53 AM)
Minimum temperature yesterday: 69 °F (at 1:53 AM)
Average temperature yesterday: 75 °F

Past Weeks' High & Low Weather Summary

 TemperatureHumidityPressure
High90 °F (Jul 19, 10:53 AM)91% (Jul 18, 8:53 PM)30.07 "Hg (Jul 18, 8:53 PM)
Low66 °F (Jul 17, 4:53 AM)30% (Jul 18, 11:53 AM)29.77 "Hg (Jul 17, 4:53 PM)
Average75 °F68%29.91 "Hg
* Reported Jul 14 1:53 AM — Jul 29 1:53 AM, West Covina, Weather by CustomWeather, © 2015

Note: Actual official high and low records may vary slightly from our data, if they occured in-between our weather recording intervals... More about our weather records

Advertising

West Covina weather history for previous 24 hours

 ConditionsComfort  
Time TempWeatherWind HumidityBarometerVisibility
1:53 AM
Wed, Jul 29
71 °FOvercast.5 mph81%29.90 "Hg9 mi
12:53 AM71 °FClear.No wind78%29.90 "Hg10 mi
11:53 PM
Tue, Jul 28
71 °FClear.No wind78%29.91 "Hg10 mi
10:53 PM72 °FClear.5 mph76%29.90 "Hg10 mi
9:53 PM73 °FClear.No wind71%29.88 "Hg10 mi
8:53 PM75 °FSunny.No wind66%29.85 "Hg10 mi
7:53 PM77 °FSunny.6 mph62%29.83 "Hg10 mi
6:53 PM81 °FSunny.6 mph54%29.82 "Hg10 mi
5:53 PM81 °FSunny.8 mph54%29.81 "Hg10 mi
4:53 PM82 °FSunny.9 mph53%29.82 "Hg10 mi
3:53 PM82 °FSunny.8 mph53%29.83 "Hg10 mi
2:53 PM83 °FSunny.9 mph50%29.84 "Hg10 mi
1:53 PM83 °FSunny.9 mph50%29.85 "Hg10 mi
12:53 PM82 °FSunny.7 mph51%29.87 "Hg10 mi
11:53 AM83 °FSunny.6 mph50%29.88 "Hg10 mi
10:53 AM80 °FSunny.No wind52%29.88 "Hg10 mi
9:53 AM75 °FSunny.3 mph62%29.89 "Hg10 mi
8:53 AM73 °FScattered clouds.3 mph66%29.90 "Hg10 mi
8:04 AM71 °FScattered clouds.No wind73%29.91 "Hg10 mi
7:53 AM70 °FPartly sunny.No wind73%29.90 "Hg10 mi
6:53 AM69 °FOvercast.No wind79%29.88 "Hg10 mi
5:53 AM69 °FOvercast.3 mph79%29.88 "Hg10 mi
4:53 AM69 °FOvercast.3 mph81%29.87 "Hg10 mi
3:53 AM69 °FOvercast.No wind81%29.86 "Hg10 mi
Weather by CustomWeather, © 2015

See weather overviewHow to use our weather pages